FREGAT DEB

Last updated on Wed Oct 29 2025 00:02:10 GMT+0000 (Coordinated Universal Time)

1 49271U 11037PF 25301.46338104 .00000850 00000+0 19587-2 0 9999 2 49271 51.6268 333.3066 0893371 126.1207 242.5728 12.33754141196341
UTC large
Height (km)
Speed (km/s)
/
Latitude / Longitude
Inclination (degrees)
Orbital Period (minutes)
Azimuth
Elevation
Range (km)
Doppler Factor

Next 0 passes for location: London (51.5072 / 0.1276)

Sorry there are no passes over London.